カタログに戻る

ATLAS CENTAUR 2 R/B

運用中LEO
NORAD 694·ROCKET BODY·🇺🇸 United States

打ち上げ Nov 27, 1963 から Cape Canaveral Space Force Station

Loading…

次のパス (今後24時間)

TLE

最新Source: Space-Track

元期: Sep 14, 2026, 00:58 UTC

1 00694U 63047A   26257.04046840  .00002059  00000-0  23750-3 0  9993
2 00694  30.3556 222.4341 0545079 301.1898  53.6369 14.12687245158276

AllMySatでATLAS CENTAUR 2 R/Bをリアルタイム追跡

Download on the App Store